Flag for U.S.A. Weather past 2 weeks in Mansfield, Texas, U.S.A.

Now
47 °F

Mostly cloudy.


Feels Like: 42 °F
Forecast: 42 / 55 °F
Wind: 9 mph from Northwest

Location: Burleson-Rendon

Current Time: Dec 19, 2014 at 10:49:46 PM

Latest Report: Dec 19, 2014 at 10:15 PM


Visibility: 7 mi

Pressure: 30.23 "Hg

Humidity: 92%

Dew point: 45 °F

Location of MansfieldLocation

Historic Weather in Mansfield — Graph

°F

Mansfield temperature yesterday

Maximum temperature yesterday: 50 °F (at 3:49 PM)
Minimum temperature yesterday: 43 °F (at 12:15 AM)
Average temperature yesterday: 46 °F

Past Weeks' High & Low Weather Summary

 TemperatureHumidityPressure
High79 °F (Dec 5, 2:54 PM)100% (Dec 7, 7:48 AM)30.43 "Hg (Dec 7, 7:48 AM)
Low34 °F (Dec 8, 6:15 AM)30% (Dec 15, 3:49 PM)29.81 "Hg (Dec 14, 4:49 PM)
Average52 °F82%30.20 "Hg
* Reported Dec 4 9:35 PM — Dec 19 9:35 PM, Mansfield, Weather by CustomWeather, © 2014

Note: Actual official high and low records may vary slightly from our data, if they occured in-between our weather recording intervals... More about our weather records

Advertising

Mansfield weather history for previous 24 hours

 ConditionsComfort  
Time TempWeatherWind HumidityBarometerVisibility
9:35 PM
Dec 19
47 °FMostly cloudy.8 mph90%30.22 "Hg7 mi
8:55 PM47 °FFog.7 mph92%30.22 "Hg5 mi
8:15 PM47 °FFog.5 mph91%30.21 "Hg5 mi
7:55 PM48 °FMostly cloudy.3 mph90%30.20 "Hg7 mi
7:35 PM47 °FOvercast.6 mph90%30.20 "Hg7 mi
7:15 PM48 °FOvercast.6 mph89%30.19 "Hg7 mi
6:49 PM48 °FOvercast.8 mph87%30.20 "Hg7 mi
5:48 PM48 °FOvercast.7 mph87%30.19 "Hg7 mi
4:50 PM48 °FFog.8 mph87%30.18 "Hg5 mi
3:51 PM48 °FFog.8 mph87%30.17 "Hg5 mi
2:51 PM48 °FFog.9 mph94%30.16 "Hg4 mi
1:53 PM48 °FFog.9 mph94%30.16 "Hg3 mi
12:50 PM46 °FFog.8 mph100%30.17 "Hg2 mi
11:48 AM46 °FFog.10 mph93%30.20 "Hg3 mi
10:49 AM46 °FFog.12 mph93%30.21 "Hg4 mi
9:52 AM46 °FLow clouds.13 mph93%30.21 "Hg4 mi
8:52 AM46 °FLow clouds.12 mph93%30.20 "Hg3 mi
7:52 AM46 °FLow clouds.10 mph93%30.18 "Hg3 mi
6:48 AM45 °FLow clouds.6 mph100%30.17 "Hg4 mi
6:15 AM46 °FRain. Low clouds.5 mph94%30.17 "Hg3 mi
5:55 AM46 °FThundershowers. Low clouds.6 mph93%30.18 "Hg3 mi
5:35 AM46 °FRain. Low clouds.8 mph93%30.16 "Hg4 mi
5:15 AM46 °FLight rain. Low clouds.9 mph93%30.16 "Hg5 mi
4:55 AM46 °FFog.8 mph92%30.16 "Hg5 mi
4:35 AM46 °FRain. Mostly cloudy.7 mph91%30.17 "Hg7 mi
4:15 AM47 °FDrizzle. Low clouds.10 mph91%30.22 "Hg5 mi
3:55 AM47 °FFog.8 mph91%30.17 "Hg5 mi
3:35 AM47 °FFog.7 mph92%30.17 "Hg5 mi
3:15 AM47 °FFog.No wind92%30.15 "Hg5 mi
2:55 AM47 °FFog.9 mph92%30.12 "Hg5 mi
2:15 AM47 °FFog.6 mph90%30.15 "Hg5 mi
1:55 AM47 °FFog.8 mph90%30.16 "Hg5 mi
1:35 AM47 °FMostly cloudy.6 mph90%30.17 "Hg7 mi
1:15 AM47 °FMostly cloudy.8 mph90%30.15 "Hg7 mi
12:55 AM47 °FFog.7 mph90%30.17 "Hg5 mi
12:15 AM47 °FOvercast.6 mph89%30.17 "Hg7 mi
11:55 PM
Dec 18
47 °FOvercast.5 mph90%30.17 "Hg7 mi
11:15 PM47 °FFog.5 mph90%30.17 "Hg5 mi
10:55 PM47 °FFog.3 mph90%30.18 "Hg5 mi
10:35 PM47 °FFog.7 mph89%30.18 "Hg5 mi
10:15 PM48 °FOvercast.5 mph89%30.20 "Hg7 mi
Weather by CustomWeather, © 2014

See weather overviewHow to use our weather pages